Location: Shepherdstown, WV
(39.4326°N, 77.8042°W)
Time: 14:31:47
(UTC-04:00)

Vanguard 1 Rocket - Pass Details

Date: 08 August 2021
Orbit: 650 x 4226 km, 34.3° (Epoch: 20 September)

Event Time Altitude Azimuth Distance (km) Brightness Sun altitude
Rises 13:32:50 0° 277° (W) 7,690 12.1 66.2°
Reaches altitude 10° 13:38:51 10° 275° (W) 6,180 11.8 66.0°
Maximum altitude 13:55:19 58° 203° (SSW) 2,215 12.2 65.0°
Drops below altitude 10° 14:03:40 10° 126° (SE) 3,292 10.5 64.4°
Sets 14:05:53 0° 121° (ESE) 3,977 10.7 64.2°
